COSMOS 1275 DEB, 42103

Orbit data source: Space-Track

COSMOS 1275 DEB, 42103 is space debris in LEO originally from a launch on Thu, 04 Jun 1981 UTC launched from the Plesetsk Missile And Space Complex (PKMTR). Debris objects in space refer to the collection of defunct objects orbiting the Earth. Examples of debris include non-operational satellites, rocket bodies, and fragments generated from explosions, collisions, or faulty payload assembly.

Loading next visibility...
Identifier
42103, 1981-053PP
Orbit
LEO
Country
Flag of CISCIS
Related business
Manufacturer
Unknown
Mission
Spacecraft
Bus & Motor
Unknown
Mass
Unknown
Launch date (UTC)
1981-06-04 (45 years ago)
Launch vehicle
Unknown
Launch site
Plesetsk Missile And Space Complex (PKMTR)
Object type
Payload
Rocket body
Debris
Shape & HBR
Unknown shape, 0.1 m
Radar Cross Section
Small (<0.1 m²)

Expand to show TLE details & history
Last TLE update: 1 week ago

TLE from 1 week ago
0 COSMOS 1275 DEB
1 42103U 81053PP  26117.34716185  .00002138  00000-0  10684-2 0  9994
2 42103  83.1751 341.9106 0027065 211.6097 148.3459 14.16193197637717
Epoch: 2026-04-27T08:19Z
TLE epoch observation values (Epoch: 2026-04-27T08:19:54.783Z)
Latitude
Longitude
1.5942°
Altitude
857.862 km
Speed
7.415 km/s
True Right ascension
22h 47m 38s
True Declination
0° 00' 00"
Sunlit
Object was in daylight at epoch
Visualization orbit readout
Latitude
Unknown
Longitude
Unknown
Altitude
Unknown
Speed
Unknown
Apparent Right ascension
Unknown
Apparent Declination
Unknown
Sunlit
N/A
Visualization observer readout
Local Sidereal Time
21:14:34
Azimuth
Unknown
Elevation
Unknown
Doppler factor
Unknown
Orbital elements
Apogee altitude
854.862 km
Perigee altitude
815.816 km
Semi-major axis
7,213.476 km
Eccentricity
0.00271
Inclination
83.1751°
RAAN
341.9106°
Arg. of periapsis
211.6097°
True anomaly
148.50819°
Mean anomaly
148.3459°
Eccentric anomaly
148.42709°
Mean motion
3.54263 °/min
Orbital period
101.62 mins
BSTAR
0.0010684
Loading maneuver chart data...
Computing Atmospheric mass density...
Loading historical data...
Loading historical data...
Loading historical data...
Loading historical data...
Loading historical data...
Loading historical data...
Loading historical data...

Documentation

Showing up to 5 results
|